TimeCST,TemperatureF,Dew PointF,Humidity,Sea Level PressureIn,VisibilityMPH,Wind Direction,Wind SpeedMPH,Gust SpeedMPH,PrecipitationIn,Events,Conditions,WindDirDegrees,DateUTC
12:00 AM,10.4,6.8,85,30.03,10.0,SSW,13.8,-,N/A,,Clear,210,2013-01-25 06:00:00
12:20 AM,10.4,6.8,85,30.02,10.0,SSW,13.8,-,N/A,,Clear,200,2013-01-25 06:20:00
12:40 AM,10.4,6.8,85,30.01,10.0,SSW,12.7,-,N/A,,Clear,210,2013-01-25 06:40:00
1:00 AM,10.4,6.8,85,30.00,10.0,SSW,13.8,-,N/A,,Clear,210,2013-01-25 07:00:00
1:20 AM,10.4,6.8,85,29.99,10.0,SW,13.8,-,N/A,,Clear,220,2013-01-25 07:20:00
1:40 AM,10.4,6.8,85,29.99,10.0,SW,13.8,-,N/A,,Clear,230,2013-01-25 07:40:00
2:00 AM,10.4,8.6,92,29.99,10.0,SW,16.1,21.9,N/A,,Clear,230,2013-01-25 08:00:00
2:20 AM,10.4,8.6,92,29.99,10.0,WSW,12.7,-,N/A,,Clear,240,2013-01-25 08:20:00
2:40 AM,10.4,8.6,92,29.99,10.0,WSW,15.0,-,N/A,,Clear,240,2013-01-25 08:40:00
3:00 AM,10.4,8.6,92,29.99,10.0,WSW,12.7,-,N/A,,Clear,240,2013-01-25 09:00:00
3:20 AM,10.4,8.6,92,29.99,10.0,WSW,13.8,-,N/A,,Clear,250,2013-01-25 09:20:00
3:40 AM,12.2,10.4,92,30.00,10.0,West,11.5,18.4,N/A,,Clear,260,2013-01-25 09:40:00
4:00 AM,14.0,10.4,86,30.00,10.0,West,12.7,19.6,N/A,,Clear,280,2013-01-25 10:00:00
4:20 AM,14.0,12.2,93,29.99,10.0,West,12.7,-,N/A,,Clear,280,2013-01-25 10:20:00
4:40 AM,14.0,14.0,100,29.99,10.0,WNW,13.8,-,N/A,,Scattered Clouds,290,2013-01-25 10:40:00
5:00 AM,14.0,14.0,100,29.99,10.0,WNW,12.7,-,N/A,,Overcast,300,2013-01-25 11:00:00
5:20 AM,17.6,17.6,100,29.99,10.0,NW,12.7,-,N/A,,Overcast,320,2013-01-25 11:20:00
5:40 AM,17.6,17.6,100,29.99,10.0,NW,11.5,-,N/A,,Overcast,310,2013-01-25 11:40:00
6:00 AM,17.6,17.6,100,30.00,10.0,NW,10.4,-,N/A,,Mostly Cloudy,310,2013-01-25 12:00:00
6:20 AM,15.8,15.8,100,30.00,10.0,WNW,9.2,-,N/A,,Scattered Clouds,300,2013-01-25 12:20:00
6:40 AM,15.8,15.8,100,30.01,10.0,WNW,8.1,-,N/A,,Scattered Clouds,300,2013-01-25 12:40:00
7:20 AM,17.6,17.6,100,30.03,10.0,NW,9.2,-,N/A,,Overcast,310,2013-01-25 13:20:00
7:40 AM,17.6,17.6,100,30.03,10.0,NW,11.5,-,N/A,,Overcast,310,2013-01-25 13:40:00
8:00 AM,17.6,17.6,100,30.04,10.0,NW,12.7,-,N/A,,Overcast,320,2013-01-25 14:00:00
8:20 AM,19.4,19.4,100,30.03,10.0,NW,13.8,-,N/A,,Overcast,320,2013-01-25 14:20:00
8:40 AM,21.2,21.2,100,30.04,10.0,NW,16.1,-,N/A,,Overcast,320,2013-01-25 14:40:00
9:00 AM,23.0,23.0,100,30.04,10.0,NW,18.4,-,N/A,,Overcast,320,2013-01-25 15:00:00
9:20 AM,23.0,23.0,100,30.04,10.0,NW,17.3,24.2,N/A,,Overcast,320,2013-01-25 15:20:00
9:40 AM,23.0,23.0,100,30.06,10.0,NW,15.0,-,N/A,,Overcast,310,2013-01-25 15:40:00
10:00 AM,23.0,23.0,100,30.07,10.0,NNW,17.3,-,N/A,,Overcast,330,2013-01-25 16:00:00
10:20 AM,23.0,23.0,100,30.08,10.0,NNW,19.6,-,N/A,,Overcast,330,2013-01-25 16:20:00
10:40 AM,23.0,23.0,100,30.09,10.0,NW,20.7,26.5,N/A,,Overcast,320,2013-01-25 16:40:00
11:00 AM,23.0,23.0,100,30.11,10.0,NW,21.9,29.9,N/A,,Overcast,320,2013-01-25 17:00:00
11:20 AM,21.2,21.2,100,30.12,10.0,NNW,24.2,31.1,N/A,,Overcast,330,2013-01-25 17:20:00
11:40 AM,19.4,19.4,100,30.13,10.0,NNW,21.9,29.9,N/A,,Overcast,330,2013-01-25 17:40:00
12:00 PM,19.4,19.4,100,30.13,10.0,NNW,28.8,33.4,N/A,Snow,Light Snow,330,2013-01-25 18:00:00
12:20 PM,19.4,19.4,100,30.12,10.0,NW,26.5,33.4,N/A,Snow,Light Snow,320,2013-01-25 18:20:00
12:40 PM,17.6,15.8,93,30.13,10.0,NW,25.3,28.8,N/A,,Clear,320,2013-01-25 18:40:00
1:00 PM,17.6,14.0,86,30.14,10.0,NW,19.6,26.5,N/A,,Clear,320,2013-01-25 19:00:00
1:20 PM,17.6,14.0,86,30.13,10.0,NNW,25.3,29.9,N/A,,Clear,330,2013-01-25 19:20:00
1:40 PM,17.6,14.0,86,30.13,10.0,NNW,25.3,33.4,N/A,,Clear,330,2013-01-25 19:40:00
2:00 PM,17.6,10.4,73,30.13,10.0,NW,21.9,-,N/A,,Clear,320,2013-01-25 20:00:00
2:20 PM,17.6,8.6,68,30.14,10.0,NNW,16.1,-,N/A,,Clear,330,2013-01-25 20:20:00
2:40 PM,15.8,6.8,68,30.13,10.0,NNW,16.1,-,N/A,,Clear,340,2013-01-25 20:40:00
3:00 PM,15.8,8.6,73,30.14,10.0,NNW,15.0,-,N/A,,Clear,340,2013-01-25 21:00:00
3:20 PM,15.8,6.8,68,30.14,10.0,NNW,16.1,-,N/A,,Clear,340,2013-01-25 21:20:00
3:40 PM,15.8,5.0,62,30.15,10.0,NNW,16.1,-,N/A,,Clear,340,2013-01-25 21:40:00
4:00 PM,14.0,5.0,67,30.15,10.0,North,13.8,-,N/A,,Clear,350,2013-01-25 22:00:00
4:20 PM,14.0,6.8,73,30.15,10.0,North,10.4,-,N/A,,Clear,360,2013-01-25 22:20:00
4:40 PM,12.2,5.0,73,30.15,10.0,North,11.5,-,N/A,,Clear,360,2013-01-25 22:40:00
5:00 PM,10.4,5.0,79,30.16,10.0,North,10.4,-,N/A,,Clear,10,2013-01-25 23:00:00
5:20 PM,10.4,5.0,79,30.16,10.0,North,9.2,-,N/A,,Clear,360,2013-01-25 23:20:00
5:40 PM,8.6,3.2,79,30.16,10.0,North,10.4,-,N/A,,Clear,10,2013-01-25 23:40:00
6:00 PM,8.6,3.2,79,30.17,10.0,North,4.6,-,N/A,,Clear,350,2013-01-26 00:00:00
6:20 PM,6.8,5.0,92,30.19,10.0,North,3.5,-,N/A,,Clear,360,2013-01-26 00:20:00
6:40 PM,6.8,3.2,85,30.19,10.0,North,3.5,-,N/A,,Clear,360,2013-01-26 00:40:00
7:00 PM,6.8,1.4,79,30.20,10.0,North,4.6,-,N/A,,Clear,360,2013-01-26 01:00:00
7:20 PM,6.8,1.4,79,30.20,10.0,NE,6.9,-,N/A,,Clear,40,2013-01-26 01:20:00
7:40 PM,6.8,1.4,79,30.20,10.0,NE,9.2,-,N/A,,Clear,40,2013-01-26 01:40:00
8:00 PM,6.8,1.4,79,30.21,10.0,NE,8.1,-,N/A,,Clear,40,2013-01-26 02:00:00
8:20 PM,5.0,1.4,85,30.21,10.0,NE,9.2,-,N/A,,Clear,40,2013-01-26 02:20:00
8:40 PM,5.0,1.4,85,30.21,10.0,NE,8.1,-,N/A,,Clear,50,2013-01-26 02:40:00
9:00 PM,5.0,-0.4,78,30.21,10.0,ENE,6.9,-,N/A,,Clear,60,2013-01-26 03:00:00
9:20 PM,5.0,-0.4,78,30.21,10.0,NE,8.1,-,N/A,,Clear,50,2013-01-26 03:20:00
9:40 PM,5.0,-0.4,78,30.21,10.0,ENE,9.2,-,N/A,,Clear,60,2013-01-26 03:40:00
10:00 PM,3.2,-0.4,85,30.21,10.0,ENE,8.1,-,N/A,,Clear,60,2013-01-26 04:00:00
10:40 PM,3.2,-0.4,85,30.21,10.0,ENE,6.9,-,N/A,,Clear,70,2013-01-26 04:40:00
11:00 PM,3.2,-0.4,85,30.21,10.0,East,6.9,-,N/A,,Clear,100,2013-01-26 05:00:00
11:20 PM,3.2,-0.4,85,30.21,10.0,ESE,6.9,-,N/A,,Clear,120,2013-01-26 05:20:00
11:40 PM,3.2,-0.4,85,30.20,10.0,East,9.2,-,N/A,,Clear,100,2013-01-26 05:40:00